Temperature
18 18 18 18 18 18 19 19 19 19 19 18 18 18 17 17 17 16 16 16 16 16 16 16 16 16 16 16 15 15 15 15 16 15 16 16 17 17 17 17 17 17 17
18 18 18 18 18 19 19 19 19 18 18 18 18 17 17 17 16 16 16 16 15 15 15 15 15 15 15 15 15 15 15 15 15 15 15 16 16 17 17 17 17 18 17
18 18 18 19 19 19 19 18 18 18 18 18 17 17 16 16 16 16 15 15 15 15 15 15 15 15 14 15 14 15 14 15 15 15 15 15 16 17 17 17 17 18 17
19 19 19 19 19 19 18 18 18 18 17 17 17 16 16 16 15 15 15 14 14 14 14 14 14 14 14 14 14 14 14 14 14 15 15 15 15 16 16 17 17 17 17
19 19 19 19 19 19 18 18 18 17 17 16 16 16 15 15 15 14 14 14 14 14 14 14 14 14 14 14 14 14 14 14 14 14 14 15 15 15 16 16 17 17 17
19 19 19 19 19 19 18 18 17 17 16 16 15 15 15 14 14 14 14 13 13 13 13 13 13 13 13 13 13 13 13 13 14 14 14 14 14 15 15 16 16 17 17
20 19 19 19 19 18 18 17 17 16 16 15 15 14 14 14 13 13 13 13 13 13 13 13 13 13 13 13 13 13 13 13 13 13 14 14 14 14 15 15 16 16 16
20 20 19 19 19 18 18 17 17 16 15 15 14 14 14 13 13 13 12 12 12 12 12 12 12 12 12 12 12 12 12 13 13 13 13 13 14 14 14 15 15 15 16
20 20 19 19 18 18 17 17 16 16 15 14 14 13 13 12 12 12 12 12 12 11 11 11 11 11 12 12 12 12 12 12 12 12 13 13 13 13 14 14 15 15 15
19 19 19 18 18 17 17 16 15 15 14 14 13 13 12 12 11 11 11 11 11 11 11 11 11 11 11 11 11 11 11 12 12 12 12 12 13 13 13 13 14 14 15
20 19 19 18 17 17 16 15 15 14 13 13 12 12 11 11 11 10 10 10 10 10 10 10 10 10 10 11 11 11 11 11 11 11 12 12 12 12 13 13 13 13 14
19 18 18 17 17 16 15 15 14 13 12 12 12 11 11 10 10 10 10 10 9 9 9 9 9 10 10 10 10 10 10 11 11 11 11 11 11 12 12 12 12 13 13
18 18 17 16 16 15 14 14 13 12 12 11 11 10 10 10 9 9 9 9 9 9 9 9 9 9 9 9 9 10 10 10 10 10 11 11 11 11 11 12 12 12 13
17 17 16 16 15 14 13 13 12 12 11 11 10 10 10 9 9 9 9 9 8 8 9 8 8 9 9 9 9 9 9 9 10 10 10 10 11 11 11 11 11 12 12
17 16 16 15 14 13 13 12 12 11 11 10 10 9 9 9 9 8 8 8 8 8 8 8 8 8 8 8 8 9 9 9 9 10 10 10 10 10 11 11 11 11 11
16 15 15 14 13 13 12 12 11 11 10 10 9 9 9 8 8 8 8 8 8 8 7 7 8 8 8 8 8 8 8 8 8 9 9 10 10 10 10 10 10 11 11
16 15 14 14 13 12 12 11 11 10 10 9 9 8 8 8 8 8 8 7 7 7 7 7 7 7 7 7 7 7 7 7 8 8 9 9 9 10 10 10 10 10 10
15 15 14 13 12 12 11 11 10 10 9 9 8 8 8 8 8 8 8 7 7 7 7 7 7 7 7 7 7 7 7 7 7 8 8 8 9 9 9 10 10 10 10
15 14 13 13 12 11 11 10 10 9 9 8 8 8 8 8 8 8 7 7 7 7 7 7 7 7 7 7 7 6 6 7 7 7 8 8 8 9 9 9 9 9 10
15 14 13 12 12 11 10 10 9 9 9 8 8 8 8 7 7 7 7 7 7 7 7 7 7 7 7 7 7 6 6 6 7 7 7 8 8 8 9 9 9 9 9
14 14 13 12 11 11 10 10 9 9 8 8 8 8 8 7 7 7 7 7 7 7 7 7 7 7 6 6 6 6 6 6 6 7 7 7 8 8 8 8 9 9 9
14 13 13 12 11 10 10 9 9 8 8 8 8 8 8 7 7 7 7 7 7 7 7 7 7 7 6 6 6 6 6 6 6 6 7 7 7 8 8 8 8 9 9
14 13 12 12 11 10 9 9 9 8 8 8 8 8 8 8 7 7 7 7 7 7 7 7 6 6 6 6 6 6 6 6 6 6 7 7 7 7 8 8 8 8 8
14 13 12 12 11 10 9 9 8 8 8 8 8 8 8 8 7 7 7 7 7 7 7 7 6 6 6 6 6 6 6 6 6 6 6 6 7 7 7 8 8 8 8
14 13 12 11 10 10 9 9 8 8 8 8 8 8 8 7 7 7 7 7 7 7 6 6 6 6 6 6 6 6 6 6 6 6 6 6 7 7 7 8 8 8 8
14 13 12 11 10 10 9 9 8 8 8 8 8 8 8 7 7 7 8 8 7 7 7 7 6 6 6 6 6 6 6 6 6 6 6 6 7 7 7 8 8 8 8
Wind_Speed
6 6 7 6 6 6 7 6 6 5 4 4 3 3 2 2 2 2 1 1 1 1 1 2 3 3 3 5 5 4 4 5 4 4 5 5 7 8 9 9 9 10 13
4 5 6 5 5 5 5 5 5 4 4 2 1 1 0 1 1 2 3 3 3 2 2 2 3 3 3 4 4 3 3 3 3 3 2 3 3 5 10 8 9 10 8
6 6 6 6 5 5 6 6 5 4 3 3 2 3 3 3 3 3 3 4 5 4 4 3 3 3 2 3 4 4 4 3 2 3 3 3 4 3 3 6 8 8 8
6 6 7 6 6 6 6 6 6 4 3 3 3 3 2 1 2 2 3 5 5 5 4 3 3 3 2 2 3 2 2 3 3 2 3 3 3 2 2 2 3 6 7
8 8 8 8 7 7 6 6 5 4 4 4 4 3 2 3 3 3 4 5 5 5 5 4 3 3 3 3 3 3 2 2 3 3 2 3 3 2 2 2 2 1 3
7 7 7 6 5 5 5 4 4 4 4 3 4 4 4 4 4 4 4 4 4 4 5 4 4 4 4 4 3 3 2 2 2 2 2 2 2 2 2 3 3 3 3
6 6 6 6 5 4 3 3 3 3 3 3 3 4 4 5 5 5 5 5 4 4 5 4 4 4 5 5 4 3 3 2 2 2 2 2 2 1 1 2 2 2 2
5 5 5 4 2 2 2 2 1 1 2 2 3 3 4 3 4 5 5 5 5 5 6 6 5 6 6 5 4 3 4 3 3 3 2 1 2 2 2 2 2 2 1
5 4 4 4 4 4 3 2 2 0 2 3 3 3 4 4 5 5 5 5 5 5 6 6 6 6 6 6 5 4 5 4 4 4 3 2 2 2 2 2 2 3 3
4 5 5 4 4 3 3 2 2 1 2 3 3 3 3 4 5 5 6 6 6 5 6 6 6 6 7 7 6 6 6 6 5 4 4 4 3 2 2 2 2 3 3
6 5 4 3 3 2 2 1 1 2 3 3 3 4 5 5 5 4 6 6 6 6 6 7 7 7 7 7 7 8 7 8 7 6 6 6 5 3 3 3 3 3 3
6 5 4 3 2 1 1 2 2 3 4 4 4 5 5 5 5 6 7 7 7 7 7 7 7 8 8 7 7 9 9 9 9 8 7 7 5 5 4 4 4 4 4
5 3 2 1 1 1 2 3 3 4 4 4 4 6 6 6 7 8 8 7 8 8 8 7 8 8 8 8 8 9 9 9 10 9 9 8 7 7 5 6 5 5 4
5 3 1 1 3 3 3 3 4 4 4 4 5 7 8 8 8 8 8 8 8 8 8 8 8 8 8 8 9 9 9 9 9 9 10 9 9 9 8 7 7 6 5
4 3 2 3 3 3 3 3 4 5 5 6 7 8 8 7 7 8 8 8 8 9 8 8 8 8 8 8 9 9 10 9 9 9 9 10 12 12 10 7 7 7 6
3 2 3 3 3 3 3 3 4 6 5 6 7 7 7 7 8 8 8 8 8 9 8 8 9 9 10 11 12 9 8 7 8 9 9 10 11 14 15 14 12 11 9
3 3 3 3 3 4 4 4 5 6 6 7 7 7 7 8 8 9 9 9 9 8 9 9 9 9 11 14 15 14 9 8 8 8 8 10 10 11 9 11 13 13 13
3 3 3 3 3 3 3 4 5 6 6 7 7 8 8 9 9 9 9 9 8 8 9 9 9 9 11 14 15 15 10 8 9 9 9 10 9 9 10 9 9 7 8
4 4 3 3 3 4 4 4 6 6 6 7 8 8 8 9 10 10 10 9 9 9 9 8 9 9 11 13 14 13 7 8 9 10 9 10 10 12 13 10 9 8 6
3 3 2 1 2 4 4 4 6 7 7 8 9 9 9 9 10 11 11 9 8 9 9 9 8 9 10 12 14 13 6 7 7 7 9 12 12 13 14 11 10 10 8
3 2 1 2 4 4 3 5 7 7 8 8 9 9 9 9 10 9 8 9 9 9 8 9 9 8 10 11 13 13 7 7 7 7 6 7 13 14 15 13 10 11 9
2 1 1 3 4 4 3 6 7 8 8 8 9 10 10 10 10 9 10 9 8 8 8 7 8 7 7 8 10 11 11 9 7 6 5 6 11 14 14 12 11 13 10
2 2 2 4 5 4 4 6 7 7 7 8 9 10 11 10 9 9 9 9 7 6 6 6 6 7 6 6 8 8 9 10 6 5 6 7 10 11 10 13 14 11 7
3 2 1 3 5 5 5 5 7 6 7 9 10 9 10 11 10 8 7 7 7 6 6 6 6 6 6 5 4 3 3 5 5 4 4 5 7 7 8 8 8 7 7
3 2 2 3 5 5 6 6 6 6 7 9 9 9 9 9 10 9 7 7 6 6 6 6 5 5 6 6 7 4 2 3 4 3 2 2 3 4 4 4 5 6 6
3 2 3 3 5 5 5 6 5 6 7 8 9 8 8 9 8 9 9 9 8 9 9 9 7 6 7 9 8 5 4 5 6 5 3 4 4 5 6 6 6 6 7
Wind_Direction
117 117 116 110 101 89 83 80 78 65 61 55 50 42 17 358 358 332 327 339 321 316 298 294 297 299 284 274 265 257 255 251 229 236 255 255 240 233 228 222 215 214 214
118 118 119 113 104 102 98 95 93 89 86 95 103 119 122 328 327 341 340 327 309 295 284 277 283 291 293 293 279 262 255 259 216 200 224 261 268 245 233 219 216 215 207
152 148 138 137 135 141 149 144 146 135 127 115 87 53 38 20 5 349 330 316 307 287 275 264 262 276 283 293 290 271 249 251 254 207 199 206 231 254 253 224 218 209 204
170 169 165 168 171 176 171 165 165 160 154 134 119 123 133 231 255 267 286 305 309 298 282 266 252 250 256 288 301 308 265 244 250 258 235 228 212 203 260 287 231 211 203
182 183 182 184 189 184 178 179 175 182 185 171 164 162 192 225 252 278 299 304 305 303 291 268 246 239 241 256 283 304 303 273 251 240 241 244 248 218 192 232 250 244 221
192 192 192 188 194 191 186 186 186 214 221 208 199 196 215 237 262 281 288 291 293 296 296 276 248 238 235 241 253 268 289 295 287 258 227 215 224 227 196 203 210 218 241
199 202 199 198 202 198 194 181 184 240 257 246 245 240 236 239 248 259 262 270 280 280 274 270 253 246 242 241 239 246 258 272 288 280 252 226 228 224 210 195 203 210 249
204 195 190 185 174 154 147 146 159 262 292 282 277 272 262 255 256 256 252 256 256 259 265 263 251 247 244 241 230 232 244 246 254 266 262 236 232 224 215 194 183 190 228
196 175 148 135 127 111 109 125 135 250 298 291 287 287 285 277 271 272 269 268 267 273 276 270 261 254 248 242 233 232 237 240 245 248 247 236 239 230 226 212 187 179 191
150 141 130 122 120 124 125 112 125 214 278 294 291 299 290 286 281 285 285 282 280 280 285 280 271 264 257 247 236 238 238 233 241 237 235 232 224 231 221 210 205 197 186
146 133 127 126 122 110 99 62 338 310 304 302 299 307 299 293 293 286 280 277 275 276 272 270 268 266 261 253 240 238 237 232 238 238 231 233 224 218 220 207 199 202 190
141 137 133 119 98 69 343 320 308 303 293 292 298 299 296 294 292 285 280 276 274 272 267 266 264 263 262 253 243 244 243 231 231 232 227 231 227 217 214 207 203 202 204
133 124 111 100 272 278 290 298 301 298 299 302 304 304 300 293 286 282 280 278 274 273 271 266 261 260 258 252 246 241 240 235 231 226 222 223 216 219 215 209 205 205 207
139 146 180 269 272 276 284 294 299 296 301 304 301 297 291 286 283 283 283 280 277 275 272 266 261 257 255 253 250 246 241 238 234 227 222 219 212 214 210 210 207 201 198
147 158 205 255 274 282 289 292 292 296 298 300 298 292 290 290 290 289 287 285 282 284 274 269 266 261 258 258 252 246 248 237 235 232 227 224 220 216 209 206 202 197 194
169 196 246 275 280 276 278 286 288 291 293 297 296 295 298 297 294 290 288 287 284 281 277 270 265 263 269 269 265 252 249 241 234 233 232 233 228 222 215 212 203 195 192
192 238 265 265 263 258 259 270 281 292 301 299 298 300 300 296 293 296 297 288 284 278 276 272 266 261 260 260 260 254 244 237 234 231 229 237 231 215 212 213 210 208 206
210 248 255 258 257 259 266 277 291 302 303 302 301 301 301 298 297 295 291 287 280 277 274 273 267 263 265 263 258 256 246 237 233 229 223 222 226 215 202 200 199 200 205
200 213 222 226 259 276 279 295 304 306 305 302 299 299 299 299 302 300 295 290 286 283 277 272 267 264 267 263 258 253 244 238 236 233 227 219 221 217 199 190 192 197 209
188 203 227 249 293 282 285 304 303 304 301 296 296 298 297 298 300 297 293 290 286 283 284 281 270 264 266 264 258 248 236 237 237 235 229 220 214 212 196 192 190 196 202
186 183 191 280 278 280 294 303 302 297 290 294 299 301 301 299 296 294 292 292 292 292 290 288 284 275 269 270 262 248 228 227 228 228 222 218 208 207 203 196 196 200 187
203 194 244 285 285 290 300 301 297 290 295 300 303 304 304 305 309 302 300 297 295 297 296 295 296 289 283 275 267 252 234 222 218 220 218 215 209 208 203 200 205 195 178
217 218 246 291 297 296 293 292 291 298 305 308 307 307 308 306 302 300 301 304 300 295 297 297 298 302 303 300 287 266 243 225 214 218 216 212 206 198 199 203 195 181 172
219 219 263 300 296 295 298 286 292 302 307 309 309 309 309 308 307 303 298 297 297 295 294 296 297 301 306 312 318 299 257 224 218 221 215 200 186 178 179 181 185 177 176
212 209 238 273 282 292 299 299 302 310 311 310 310 310 306 304 307 305 296 291 279 266 271 279 281 293 301 300 299 286 252 209 199 176 159 148 150 165 170 169 171 173 174
197 217 254 272 279 289 298 300 302 307 310 314 314 310 308 308 308 309 310 300 287 284 268 259 261 271 276 297 301 289 258 225 189 167 167 178 182 185 185 182 183 184 187
Height
1523 1523 1523 1523 1523 1523 1523 1523 1523 1523 1523 1523 1522 1522 1521 1521 1520 1519 1518 1517 1515 1514 1512 1510 1508 1506 1504 1502 1501 1500 1499 1499 1500 1501 1501 1502 1504 1505 1507 1509 1511 1514 1516
1523 1523 1524 1524 1523 1523 1523 1524 1524 1524 1523 1523 1522 1521 1520 1519 1518 1517 1516 1514 1512 1511 1509 1507 1505 1503 1500 1498 1496 1495 1495 1495 1495 1496 1496 1497 1499 1499 1501 1503 1505 1508 1511
1523 1524 1524 1524 1524 1524 1524 1524 1524 1523 1523 1522 1521 1520 1519 1518 1516 1514 1513 1511 1509 1508 1506 1504 1502 1500 1498 1496 1494 1492 1492 1491 1491 1492 1493 1493 1492 1493 1495 1497 1500 1503 1506
1523 1523 1523 1523 1523 1523 1523 1523 1523 1522 1521 1520 1519 1517 1516 1515 1513 1511 1509 1508 1506 1504 1502 1500 1498 1497 1495 1493 1491 1490 1488 1488 1487 1488 1488 1490 1490 1490 1490 1492 1495 1498 1501
1522 1522 1522 1522 1522 1522 1521 1521 1520 1520 1519 1517 1516 1514 1513 1511 1509 1507 1505 1503 1502 1500 1498 1497 1495 1494 1492 1490 1489 1487 1486 1485 1484 1484 1485 1486 1486 1486 1487 1488 1490 1493 1496
1520 1520 1520 1520 1520 1520 1519 1519 1518 1517 1516 1514 1512 1511 1509 1507 1505 1503 1501 1499 1497 1496 1494 1493 1491 1490 1489 1487 1486 1485 1483 1482 1482 1481 1482 1482 1483 1483 1484 1485 1487 1489 1492
1518 1518 1518 1518 1518 1518 1517 1516 1515 1514 1513 1511 1509 1507 1505 1502 1500 1498 1496 1494 1492 1491 1490 1488 1487 1486 1485 1484 1482 1481 1480 1479 1479 1478 1478 1479 1480 1481 1481 1482 1484 1486 1489
1516 1516 1516 1516 1516 1516 1515 1514 1513 1511 1509 1507 1505 1503 1501 1498 1496 1494 1491 1489 1488 1486 1485 1483 1482 1481 1480 1479 1478 1477 1477 1476 1475 1475 1475 1475 1476 1477 1478 1479 1481 1483 1485
1515 1514 1515 1514 1514 1514 1513 1512 1510 1508 1506 1503 1501 1498 1496 1493 1491 1489 1486 1484 1482 1481 1479 1478 1477 1476 1475 1474 1474 1473 1472 1472 1471 1471 1471 1471 1471 1473 1474 1476 1478 1480 1480
1514 1513 1513 1513 1512 1512 1510 1508 1506 1504 1502 1499 1496 1494 1491 1488 1486 1483 1481 1479 1477 1475 1473 1472 1471 1470 1469 1469 1468 1468 1468 1467 1467 1467 1467 1467 1467 1468 1469 1471 1473 1475 1477
1512 1512 1511 1511 1510 1509 1507 1505 1503 1500 1498 1495 1492 1489 1486 1483 1480 1478 1475 1473 1471 1469 1467 1466 1464 1463 1462 1462 1462 1461 1462 1462 1462 1462 1463 1463 1463 1464 1465 1466 1468 1470 1473
1510 1510 1510 1509 1508 1506 1504 1501 1499 1496 1493 1490 1487 1484 1481 1478 1475 1472 1469 1467 1465 1463 1461 1459 1457 1456 1455 1455 1455 1455 1455 1455 1456 1456 1457 1458 1459 1459 1460 1461 1463 1465 1468
1509 1509 1508 1506 1505 1503 1500 1498 1495 1492 1489 1486 1482 1479 1476 1472 1469 1466 1464 1461 1458 1456 1454 1452 1450 1449 1448 1447 1447 1447 1447 1448 1449 1450 1451 1452 1454 1454 1456 1457 1459 1461 1463
1508 1507 1505 1504 1502 1499 1497 1494 1491 1488 1485 1481 1478 1474 1470 1467 1464 1461 1458 1455 1452 1450 1447 1445 1443 1442 1441 1440 1439 1439 1439 1440 1441 1443 1444 1446 1448 1449 1451 1452 1454 1456 1458
1506 1505 1503 1501 1498 1496 1493 1490 1487 1484 1480 1476 1473 1469 1465 1462 1458 1455 1452 1449 1446 1443 1440 1438 1436 1434 1433 1432 1431 1431 1431 1432 1433 1435 1437 1439 1441 1443 1445 1447 1449 1451 1453
1503 1502 1500 1498 1495 1492 1489 1486 1483 1479 1475 1472 1468 1464 1460 1456 1453 1449 1445 1442 1439 1436 1433 1430 1428 1426 1425 1424 1423 1423 1423 1424 1425 1426 1429 1431 1434 1436 1439 1441 1443 1445 1447
1500 1499 1497 1494 1491 1489 1485 1482 1478 1475 1471 1467 1463 1459 1455 1451 1447 1443 1439 1435 1432 1428 1426 1423 1421 1418 1417 1416 1415 1415 1415 1416 1417 1418 1421 1424 1426 1429 1432 1435 1437 1440 1442
1497 1495 1493 1490 1488 1485 1481 1478 1474 1470 1466 1462 1458 1454 1450 1445 1441 1437 1433 1429 1426 1422 1419 1416 1414 1411 1409 1408 1407 1407 1407 1408 1409 1410 1413 1416 1419 1422 1426 1428 1431 1434 1437
1494 1492 1490 1487 1484 1481 1477 1474 1470 1466 1462 1458 1453 1449 1445 1440 1436 1431 1428 1424 1420 1416 1413 1410 1407 1404 1402 1401 1400 1400 1399 1400 1401 1403 1405 1408 1411 1415 1419 1422 1425 1428 1432
1491 1489 1486 1484 1481 1477 1474 1470 1466 1462 1457 1453 1449 1444 1440 1436 1431 1427 1423 1419 1415 1411 1408 1404 1401 1398 1396 1394 1393 1393 1392 1392 1393 1395 1398 1401 1404 1407 1412 1416 1419 1422 1426
1488 1485 1483 1480 1477 1473 1470 1466 1462 1458 1454 1449 1445 1440 1436 1431 1427 1423 1419 1415 1411 1407 1403 1399 1396 1393 1390 1388 1387 1386 1386 1386 1387 1389 1391 1394 1398 1401 1405 1410 1414 1417 1422
1484 1482 1479 1477 1474 1470 1466 1462 1458 1454 1450 1445 1441 1436 1432 1428 1423 1419 1415 1411 1407 1402 1398 1394 1391 1388 1385 1383 1382 1381 1381 1381 1382 1383 1386 1389 1392 1395 1400 1404 1409 1413 1417
1481 1479 1476 1473 1470 1467 1463 1459 1455 1450 1446 1442 1437 1433 1429 1424 1420 1415 1411 1407 1403 1399 1394 1391 1387 1384 1381 1379 1378 1377 1376 1377 1378 1379 1382 1385 1387 1391 1395 1400 1404 1409 1412
1477 1475 1473 1470 1467 1463 1460 1456 1451 1447 1443 1438 1434 1430 1425 1421 1416 1412 1408 1403 1399 1395 1391 1388 1384 1381 1378 1376 1375 1373 1373 1373 1374 1376 1378 1381 1384 1387 1392 1396 1400 1404 1408
1474 1472 1469 1466 1463 1460 1456 1452 1448 1444 1439 1435 1431 1427 1422 1418 1413 1409 1405 1400 1397 1393 1389 1385 1382 1379 1376 1374 1372 1371 1370 1371 1372 1373 1375 1378 1381 1384 1388 1392 1396 1400 1404
1470 1468 1466 1463 1460 1456 1453 1449 1445 1441 1437 1432 1428 1424 1420 1415 1411 1406 1402 1398 1394 1390 1387 1383 1380 1377 1375 1372 1370 1369 1369 1369 1369 1371 1373 1375 1378 1381 1385 1389 1393 1397 1401